WetterOnline ( https://www.wetteronline.de )

Wetter aktuell Stein

Aktuelles Wetter: Nürnberg/Flughafen (318m)

6-stündlich | Neueste Meldungen
Ortszeit Temperatur Wetter
Mi, 04.08. 14:00 19.0° C bewölkt
Mi, 04.08. 8:00 15.4° C bewölkt
Mi, 04.08. 2:00 15.4° C wolkig
Di, 03.08. 20:00 19.6° C wolkig
Di, 03.08. 14:00 20.2° C wolkig
Di, 03.08. 8:00 13.2° C leicht bewölkt
Di, 03.08. 2:00 11.9° C leicht bewölkt
Mo, 02.08. 20:00 16.0° C leichte Schauer
Ortszeit Temperatur Wetter
Mi, 04.08. 19:00 18.6° C wolkig
Mi, 04.08. 18:50 18.6° C bewölkt
Mi, 04.08. 18:40 18.7° C bewölkt
Mi, 04.08. 18:30 19.0° C bewölkt
Mi, 04.08. 18:20 19.0° C bewölkt
Mi, 04.08. 18:10 19.2° C bewölkt
Mi, 04.08. 18:00 19.7° C bewölkt
Mi, 04.08. 17:30 19.4° C bedeckt
Mi, 04.08. 17:00 19.7° C bewölkt
Mi, 04.08. 16:30 19.6° C bedeckt
Mi, 04.08. 16:00 19.3° C bewölkt
Ortszeit Relative Feuchte Sichtweite
Mi, 04.08. 14:00 64% 60 km
Mi, 04.08. 8:00 82% 50 km
Mi, 04.08. 2:00 78% 60 km
Di, 03.08. 20:00 60% 50 km
Di, 03.08. 14:00 56% 50 km
Di, 03.08. 8:00 89% 45 km
Di, 03.08. 2:00 94% 25 km
Mo, 02.08. 20:00 78% 35 km
Ortszeit Relative Feuchte Sichtweite
Mi, 04.08. 19:00 71% 60 km
Mi, 04.08. 18:50 71% -
Mi, 04.08. 18:40 69% -
Mi, 04.08. 18:30 66% >70 km
Mi, 04.08. 18:20 66% -
Mi, 04.08. 18:10 66% -
Mi, 04.08. 18:00 60% 60 km
Mi, 04.08. 17:30 59% 55 km
Mi, 04.08. 17:00 60% 60 km
Mi, 04.08. 16:30 61% 65 km
Mi, 04.08. 16:00 60% 65 km
Ortszeit Niederschlagsmenge Niederschlagsart
Mi, 04.08. 14:00 0.0 l/m2 in 6 Std. -
Mi, 04.08. 8:00 0.1 l/m2 in 12 Std. Regen
Mi, 04.08. 2:00 0.0 l/m2 in 6 Std. -
Di, 03.08. 20:00 3 l/m2 in 12 Std. Gewitter, Schauer
Di, 03.08. 14:00 0.0 l/m2 in 6 Std. -
Di, 03.08. 8:00 0.1 l/m2 in 12 Std. -
Di, 03.08. 2:00 0.1 l/m2 in 6 Std. Schauer
Mo, 02.08. 20:00 0.4 l/m2 in 12 Std. Schauer
Ortszeit Niederschlagsmenge Niederschlagsart
Mi, 04.08. 19:00 0.0 l/m2 in 1 Std. -
Mi, 04.08. 18:50 keine Meldung -
Mi, 04.08. 18:40 keine Meldung -
Mi, 04.08. 18:30 0.0 l/m2 in 1 Std. -
Mi, 04.08. 18:20 keine Meldung -
Mi, 04.08. 18:10 keine Meldung -
Mi, 04.08. 18:00 0.0 l/m2 in 1 Std. -
Mi, 04.08. 17:30 0.0 l/m2 in 1 Std. -
Mi, 04.08. 17:00 0.0 l/m2 in 1 Std. -
Mi, 04.08. 16:30 0.0 l/m2 in 1 Std. -
Mi, 04.08. 16:00 0.0 l/m2 in 1 Std. -
Ortszeit Stärke Spitze Richtung
km/h Bft. km/h Grad Sektor
Mi, 04.08. 14:00 7 2 18 120° SO
Mi, 04.08. 8:00 7 2 15 190° S
Mi, 04.08. 2:00 9 2 22 210° SW
Di, 03.08. 20:00 13 3 44 220° SW
Di, 03.08. 14:00 13 3 22 160° S
Di, 03.08. 8:00 7 2 18 100° O
Di, 03.08. 2:00 7 2 25 110° O
Mo, 02.08. 20:00 18 3 43 280° W
Ortszeit Stärke Spitze Richtung
km/h Bft. km/h Grad Sektor
Mi, 04.08. 19:00 7 2 11 20° N
Mi, 04.08. 18:50 7 2 - 20° N
Mi, 04.08. 18:40 7 2 - 40° NO
Mi, 04.08. 18:30 7 2 7 50° NO
Mi, 04.08. 18:20 7 2 - 50° NO
Mi, 04.08. 18:10 6 1 - 40° NO
Mi, 04.08. 18:00 0 0 11 - -
Mi, 04.08. 17:30 4 1 11 320° NW
Mi, 04.08. 17:00 6 1 15 230° SW
Mi, 04.08. 16:30 6 1 15 190° S
Mi, 04.08. 16:00 7 2 18 180° S
Ortszeit Untergrenze Bedeckung Gattung
total tief tief mittel hoch
Mi, 04.08. 14:00 750 m 7/8 7/8 Cu - Ci
Mi, 04.08. 8:00 450 m 7/8 7/8 Cu - -
Mi, 04.08. 2:00 3000 m 7/8 5/8 - As Ci
Di, 03.08. 20:00 900 m 7/8 2/8 Cu Ac Cs
Di, 03.08. 14:00 1080 m 7/8 2/8 Cu As -
Di, 03.08. 8:00 750 m 7/8 1/8 Cu Ac Ci
Di, 03.08. 2:00 7800 m 2/8 0/8 - - Ci
Mo, 02.08. 20:00 1140 m 6/8 5/8 Cb Ac -
Ortszeit Bedeckungsgrad in Achtel und Wolkenuntergrenze
Mi, 04.08. 19:00 1(1050m) 4(2400m) 6(4500m)
Mi, 04.08. 18:50 5(1800m) 7(2700m) 8(4200m)
Mi, 04.08. 18:40 2(1800m) 6(2700m) 8(4200m)
Mi, 04.08. 18:30 7(2700m) 8(4500m)
Mi, 04.08. 18:20 7(2700m) 8(4500m)
Mi, 04.08. 18:10 7(2700m) 8(4800m) 8(5400m)
Mi, 04.08. 18:00 2(1050m) 6(2400m) 7(6000m)
Mi, 04.08. 17:30 5(2100m) 8(2700m) 8(6300m)
Mi, 04.08. 17:00 2(1050m) 7(2400m) 8(6300m)
Mi, 04.08. 16:30 8(2400m)
Mi, 04.08. 16:00 2(1050m) 7(2400m)
Ortszeit Luftdruck NN (hPa) Tendenz (hPa in 3 Std.)
Mi, 04.08. 14:00 1013 - 1,0
Mi, 04.08. 8:00 1015 + 0,7
Mi, 04.08. 2:00 1014 - 0,1
Di, 03.08. 20:00 1012 - 0,8
Di, 03.08. 14:00 1013 - 1,3
Di, 03.08. 8:00 1016 - 0,3
Di, 03.08. 2:00 1017 + 0,2
Mo, 02.08. 20:00 1015 + 0,9
Ortszeit Luftdruck NN (hPa) Tendenz (hPa in 3 Std.)
Mi, 04.08. 19:00 1012 - 0,7
Mi, 04.08. 18:50 1012 keine Meldung
Mi, 04.08. 18:40 1012 keine Meldung
Mi, 04.08. 18:30 1012 - 0,8
Mi, 04.08. 18:20 1012 keine Meldung
Mi, 04.08. 18:10 1012 keine Meldung
Mi, 04.08. 18:00 1012 - 0,7
Mi, 04.08. 17:30 1013 - 0,6
Mi, 04.08. 17:00 1013 - 0,6
Mi, 04.08. 16:30 1013 - 0,9
Mi, 04.08. 16:00 1013 - 1,2
Ortszeit Schneehöhe (cm)
Mi, 04.08. 14:00 0
Mi, 04.08. 8:00 0
Mi, 04.08. 2:00 0
Di, 03.08. 20:00 0
Di, 03.08. 14:00 0
Di, 03.08. 8:00 0
Di, 03.08. 2:00 0
Mo, 02.08. 20:00 0
Ortszeit Schneehöhe (cm)
Mi, 04.08. 19:00 -
Mi, 04.08. 18:50 -
Mi, 04.08. 18:40 -
Mi, 04.08. 18:30 -
Mi, 04.08. 18:20 -
Mi, 04.08. 18:10 -
Mi, 04.08. 18:00 -
Mi, 04.08. 17:30 -
Mi, 04.08. 17:00 -
Mi, 04.08. 16:30 -
Mi, 04.08. 16:00 -
Link zu dieser Seite / Seite empfehlen

Das Wetter in ...